Tracking 19795 objects as of 17-Jul-2019
HD Live streaming from Space Station
objects crossing your sky now

POLAR SCOUT YUKON

Track POLAR SCOUT YUKON now!
10-day predictions


NORAD ID: 43808
Int'l Code: 2018-099BC
Perigee: 580.4 km
Apogee: 596.0 km
Inclination: 97.7 °
Period: 96.3 minutes
Semi major axis: 6959 km
RCS: Unknown
Launch date: December 3, 2018
Source: United States (US)
Launch site: AIR FORCE WESTERN TEST RANGE (AFWTR)
aabbcc
Your satellite tracking list
Your tracking list is empty




NASA's NSSDC Master Catalog

Two Line Element Set (TLE):
1 43808U 18099BC  19198.25754037 -.00000008  00000-0  44949-5 0  9995
2 43808  97.7436 269.9703 0011210 235.3049 124.7116 14.95423036 33384
Source of the keplerian elements: AFSPC